Location: Austin
(30.3000°N, 97.7500°W)
Time: 08:00:33
(UTC-05:00)

Hubble Space Telescope - Pass Details

Date: 19 September 2023
Orbit: 522 x 525 km, 28.5° (Epoch: 25 September)

Event Time Altitude Azimuth Distance (km) Brightness Sun altitude
Exits shadow 04:57:57 17° 114° (ESE) 1,373 3.2 -30.2°
Drops below altitude 10° 04:59:09 10° 102° (ESE) 1,747 4.0 -30.0°
Sets 05:01:38 0° 90° (E) 2,637 5.3 -29.5°
